sampling_time,wmo_synop_id,msc_id,stn_nam,stn_elev,lat,long,stn_typ,date_tm,rpt_typ,result_time,crnt_buoy_lat,crnt_buoy_lat_qa_summary,crnt_buoy_long,crnt_buoy_long_qa_summary,avg_air_temp_pst10mts,avg_air_temp_pst10mts_qa_summary,avg_sea_sfc_temp_pst10mts,avg_sea_sfc_temp_pst10mts_qa_summary,avg_batry_volt_pst10mts,avg_batry_volt_pst10mts_qa_summary,avg_solr_panl_crnt_pst10mts,avg_solr_panl_crnt_pst10mts_qa_summary,avg_wtr_lvl_snsr_volt_pst10mts,avg_wtr_lvl_snsr_volt_pst10mts_qa_summary,avg_wave_hgt_pst20mts,avg_wave_hgt_pst20mts_qa_summary,pk_wave_hgt_pst20mts,pk_wave_hgt_pst20mts_qa_summary,sig_wave_pd_pst20mts,sig_wave_pd_pst20mts_qa_summary,sig_wave_hgt_pst20mts,sig_wave_hgt_pst20mts_qa_summary,avg_max_wave_hgt_pst20mts,avg_max_wave_hgt_pst20mts_qa_summary,avg_max_wave_pd_pst20mts,avg_max_wave_pd_pst20mts_qa_summary,avg_wave_pd_pst20mts,avg_wave_pd_pst20mts_qa_summary,pk_wave_pd_pst20mts,pk_wave_pd_pst20mts_qa_summary,avg_stn_pres_pst10mts,avg_stn_pres_pst10mts_qa_summary,avg_wnd_spd_pst10mts,avg_wnd_spd_pst10mts_qa_summary,avg_wnd_dir_pst10mts,avg_wnd_dir_pst10mts_qa_summary,max_avg_wnd_spd_pst10mts,max_avg_wnd_spd_pst10mts_qa_summary,wnd_snsr_vert_disp,wnd_snsr_vert_disp_qa_summary,pres_tend_char_pst3hrs,pres_tend_char_pst3hrs_data_flag,pres_tend_amt_pst3hrs,pres_tend_amt_pst3hrs_data_flag,avg_mslp_pst10mts,avg_mslp_pst10mts_data_flag,avg_stn_pres_pst10mts_1,avg_stn_pres_pst10mts_1_qa_summary,avg_stn_pres_pst10mts_2,avg_stn_pres_pst10mts_2_qa_summary,avg_wnd_spd_pst10mts_1,avg_wnd_spd_pst10mts_1_qa_summary,avg_wnd_spd_pst10mts_2,avg_wnd_spd_pst10mts_2_qa_summary,avg_wnd_dir_pst10mts_1,avg_wnd_dir_pst10mts_1_qa_summary,avg_wnd_dir_pst10mts_2,avg_wnd_dir_pst10mts_2_qa_summary,max_avg_wnd_spd_pst10mts_1,max_avg_wnd_spd_pst10mts_1_qa_summary,max_avg_wnd_spd_pst10mts_2,max_avg_wnd_spd_pst10mts_2_qa_summary
2023-10-16T00:00:00Z,44489,9302001,WEST CHEDABUCTO BAY,0,45.48687,-61.14100000000001,18,2023-10-16T00:00:00.000Z,108,2023-10-16T00:02:45.396Z,45.48702,100,-61.1411,100,12.2,100,14.7,100,12.4,100,0.0,100,3.5,100,0.3,100,0.6,100,3.1,100,0.4,100,0.5,100,3.1,100,2.8,100,3.4,100,991.5,100,25.6,100,81,100,30.2,100,5,100,8,1,-2.7,1,991.5,1,991.5,100,991.5,100,25.6,100,24.5,100,81,100,75,100,30.2,100,30.2,100
2023-10-16T00:10:00Z,44489,9302001,WEST CHEDABUCTO BAY,0,45.48687,-61.14100000000001,18,2023-10-16T00:10:00.000Z,110,2023-10-16T00:12:53.715Z,45.487,100,-61.1411,100,13.0,100,15.2,100,12.4,100,0.0,100,3.5,100,,-1,,-1,,-1,,-1,,-1,,-1,,-1,,-1,991.3,100,25.9,100,76,100,31.3,100,5,100,8,1,-2.7,1,991.3,1,991.3,100,991.3,100,25.9,100,24.8,100,76,100,71,100,31.3,100,30.2,100
2023-10-16T00:20:00Z,44489,9302001,WEST CHEDABUCTO BAY,0,45.48687,-61.14100000000001,18,2023-10-16T00:20:00.000Z,110,2023-10-16T00:22:56.951Z,45.486999999999995,100,-61.1411,100,12.4,100,14.7,100,12.4,100,0.0,100,3.5,100,,-1,,-1,,-1,,-1,,-1,,-1,,-1,,-1,991.3,100,24.8,100,78,100,30.2,100,5,100,8,1,-2.6,1,991.3,1,991.3,100,991.2,100,24.8,100,23.8,100,78,100,73,100,30.2,100,29.2,100
2023-10-16T00:30:00Z,44489,9302001,WEST CHEDABUCTO BAY,0,45.48687,-61.14100000000001,18,2023-10-16T00:30:00.000Z,110,2023-10-16T00:33:01.426Z,45.487,100,-61.14108,100,12.4,100,14.7,100,12.4,100,0.0,100,3.5,100,,-1,,-1,,-1,,-1,,-1,,-1,,-1,,-1,991.0,100,27.7,100,80,100,37.1,100,5,100,8,1,-2.8,1,991.0,1,991.0,100,991.0,100,27.7,100,26.6,100,80,100,75,100,37.1,100,35.6,100
2023-10-16T00:40:00Z,44489,9302001,WEST CHEDABUCTO BAY,0,45.48687,-61.14100000000001,18,2023-10-16T00:40:00.000Z,110,2023-10-16T00:42:54.476Z,45.48698,100,-61.14112,100,12.6,100,14.7,100,12.4,100,0.0,100,3.5,100,,-1,,-1,,-1,,-1,,-1,,-1,,-1,,-1,990.7,100,29.5,100,77,100,38.9,100,5,100,8,1,-3.0,1,990.7,1,990.7,100,990.6,100,29.5,100,28.4,100,77,100,72,100,38.9,100,37.8,100
2023-10-16T00:50:00Z,44489,9302001,WEST CHEDABUCTO BAY,0,45.48687,-61.14100000000001,18,2023-10-16T00:50:00.000Z,110,2023-10-16T00:52:58.131Z,45.487,100,-61.141130000000004,100,12.6,100,14.7,100,12.4,100,0.0,100,3.5,100,,-1,,-1,,-1,,-1,,-1,,-1,,-1,,-1,990.4,100,34.2,100,77,100,42.5,100,5,100,8,1,-3.2,1,990.4,1,990.4,100,990.3,100,34.2,100,33.1,100,77,100,72,100,42.5,100,40.3,100
2023-10-16T01:00:00Z,44489,9302001,WEST CHEDABUCTO BAY,0,45.48687,-61.14100000000001,18,2023-10-16T01:00:00.000Z,108,2023-10-16T01:03:01.481Z,45.48698,100,-61.14117,100,12.6,100,14.7,100,12.4,100,0.0,100,3.5,100,0.3,100,0.7,100,3.4,100,0.4,100,0.5,100,3.4,100,2.9,100,3.8,100,990.1,100,34.6,100,80,100,45.7,100,5,100,8,1,-3.5,1,990.1,1,990.1,100,990.1,100,34.6,100,33.1,100,80,100,75,100,45.7,100,43.6,100
2023-10-16T01:10:00Z,44489,9302001,WEST CHEDABUCTO BAY,0,45.48687,-61.14100000000001,18,2023-10-16T01:10:00.000Z,110,2023-10-16T01:16:14.984Z,45.48697,100,-61.14115,100,12.6,100,14.7,100,12.4,100,0.0,100,3.5,100,,-1,,-1,,-1,,-1,,-1,,-1,,-1,,-1,989.9,100,34.6,100,79,100,43.6,100,5,100,8,1,-3.5,1,989.9,1,989.9,100,989.9,100,34.6,100,33.5,100,79,100,74,100,43.6,100,43.6,100
2023-10-16T01:20:00Z,44489,9302001,WEST CHEDABUCTO BAY,0,45.48687,-61.14100000000001,18,2023-10-16T01:20:00.000Z,110,2023-10-16T01:23:09.711Z,45.48698,100,-61.14115,100,12.5,100,14.7,100,12.4,100,0.0,100,3.5,100,,-1,,-1,,-1,,-1,,-1,,-1,,-1,,-1,989.7,100,33.8,100,81,100,45.4,100,5,100,8,1,-3.7,1,989.7,1,989.7,100,989.6,100,33.8,100,32.8,100,81,100,76,100,45.4,100,43.2,100
2023-10-16T01:30:00Z,44489,9302001,WEST CHEDABUCTO BAY,0,45.48687,-61.14100000000001,18,2023-10-16T01:30:00.000Z,110,2023-10-16T01:33:17.656Z,45.486979999999996,100,-61.141169999999995,100,12.5,100,14.7,100,12.4,100,0.0,100,3.5,100,,-1,,-1,,-1,,-1,,-1,,-1,,-1,,-1,989.4,100,32.4,100,78,100,40.3,100,5,100,8,1,-3.9,1,989.4,1,989.4,100,989.3,100,32.4,100,31.3,100,78,100,74,100,40.3,100,38.5,100
2023-10-16T01:40:00Z,44489,9302001,WEST CHEDABUCTO BAY,0,45.48687,-61.14100000000001,18,2023-10-16T01:40:00.000Z,110,2023-10-16T01:43:15.717Z,45.48702,100,-61.14117,100,12.5,100,14.7,100,12.4,100,0.0,100,3.5,100,,-1,,-1,,-1,,-1,,-1,,-1,,-1,,-1,989.0,100,33.5,100,79,100,44.3,100,5,100,8,1,-4.1,1,989.0,1,989.0,100,988.9,100,33.5,100,32.4,100,79,100,74,100,44.3,100,43.2,100
2023-10-16T01:50:00Z,44489,9302001,WEST CHEDABUCTO BAY,0,45.48687,-61.14100000000001,18,2023-10-16T01:50:00.000Z,110,2023-10-16T01:53:12.580Z,45.48695,100,-61.14115,100,12.6,100,14.7,100,12.4,100,0.0,100,3.5,100,,-1,,-1,,-1,,-1,,-1,,-1,,-1,,-1,988.8,100,31.3,100,77,100,41.8,100,5,100,8,1,-4.2,1,988.8,1,988.8,100,988.7,100,31.3,100,29.9,100,77,100,72,100,41.8,100,40.0,100
2023-10-16T02:00:00Z,44489,9302001,WEST CHEDABUCTO BAY,0,45.48687,-61.14100000000001,18,2023-10-16T02:00:00.000Z,108,2023-10-16T02:03:13.424Z,45.48695,100,-61.14112,100,12.6,100,14.6,100,12.4,100,0.0,100,3.5,100,0.3,100,0.9,100,3.4,100,0.5,100,0.6,100,3.4,100,3.0,100,4.3,100,988.4,100,34.2,100,75,100,45.4,100,5,100,8,1,-4.5,1,988.4,1,988.4,100,988.3,100,34.2,100,32.8,100,75,100,70,100,45.4,100,44.6,100
2023-10-16T02:10:00Z,44489,9302001,WEST CHEDABUCTO BAY,0,45.48687,-61.14100000000001,18,2023-10-16T02:10:00.000Z,110,2023-10-16T02:16:25.512Z,45.486979999999996,100,-61.141169999999995,100,12.4,100,14.6,100,12.4,100,0.0,100,3.5,100,,-1,,-1,,-1,,-1,,-1,,-1,,-1,,-1,988.1,100,37.1,100,80,100,47.2,100,5,100,8,1,-4.5,1,988.1,1,988.1,100,988.0,100,37.1,100,36.0,100,80,100,75,100,47.2,100,45.4,100
2023-10-16T02:20:00Z,44489,9302001,WEST CHEDABUCTO BAY,0,45.48687,-61.14100000000001,18,2023-10-16T02:20:00.000Z,110,2023-10-16T02:23:27.862Z,45.48698,100,-61.14118000000001,100,12.4,100,14.6,100,12.4,100,0.0,100,3.5,100,,-1,,-1,,-1,,-1,,-1,,-1,,-1,,-1,987.9,100,36.7,100,77,100,45.4,100,5,100,8,1,-4.5,1,987.9,1,987.9,100,987.8,100,36.7,100,35.3,100,77,100,72,100,45.4,100,44.6,100
2023-10-16T02:30:00Z,44489,9302001,WEST CHEDABUCTO BAY,0,45.48687,-61.14100000000001,18,2023-10-16T02:30:00.000Z,110,2023-10-16T02:33:26.283Z,45.48702,100,-61.14118000000001,100,12.3,100,14.6,100,12.4,100,0.0,100,3.5,100,,-1,,-1,,-1,,-1,,-1,,-1,,-1,,-1,987.7,100,34.2,100,77,100,43.6,100,5,100,8,1,-4.4,1,987.7,1,987.7,100,987.7,100,34.2,100,33.1,100,77,100,72,100,43.6,100,41.8,100
2023-10-16T02:40:00Z,44489,9302001,WEST CHEDABUCTO BAY,0,45.48687,-61.14100000000001,18,2023-10-16T02:40:00.000Z,110,2023-10-16T02:43:35.141Z,45.48702,100,-61.14118000000001,100,12.3,100,14.6,100,12.4,100,0.0,100,3.5,100,,-1,,-1,,-1,,-1,,-1,,-1,,-1,,-1,987.5,100,34.6,100,74,100,42.8,100,5,100,8,1,-4.3,1,987.5,1,987.5,100,987.4,100,34.6,100,33.1,100,74,100,69,100,42.8,100,41.8,100
2023-10-16T02:50:00Z,44489,9302001,WEST CHEDABUCTO BAY,0,45.48687,-61.14100000000001,18,2023-10-16T02:50:00.000Z,110,2023-10-16T02:53:29.371Z,45.48702,100,-61.14118000000001,100,12.3,100,14.6,100,12.4,100,0.0,100,3.5,100,,-1,,-1,,-1,,-1,,-1,,-1,,-1,,-1,987.2,100,34.2,100,72,100,41.8,100,5,100,8,1,-4.5,1,987.2,1,987.2,100,987.1,100,34.2,100,33.1,100,72,100,67,100,41.8,100,40.0,100
2023-10-16T03:00:00Z,44489,9302001,WEST CHEDABUCTO BAY,0,45.48687,-61.14100000000001,18,2023-10-16T03:00:00.000Z,108,2023-10-16T03:02:33.790Z,45.48703,100,-61.14122,100,12.3,100,14.6,100,12.4,100,0.0,100,3.5,100,0.4,100,1.0,100,3.8,100,0.6,100,0.8,100,3.9,100,3.1,100,4.4,100,986.9,100,34.2,100,67,100,44.6,100,5,100,8,1,-4.7,1,986.9,1,986.9,100,986.8,100,34.2,100,33.1,100,67,100,62,100,44.6,100,44.3,100
2023-10-16T03:10:00Z,44489,9302001,WEST CHEDABUCTO BAY,0,45.48687,-61.14100000000001,18,2023-10-16T03:10:00.000Z,110,2023-10-16T03:15:42.227Z,45.48697,100,-61.141169999999995,100,12.4,100,14.6,100,12.4,100,0.0,100,3.5,100,,-1,,-1,,-1,,-1,,-1,,-1,,-1,,-1,986.5,100,36.7,100,68,100,45.4,100,5,100,8,1,-4.8,1,986.5,1,986.5,100,986.5,100,36.7,100,35.3,100,68,100,63,100,45.4,100,43.6,100
2023-10-16T03:20:00Z,44489,9302001,WEST CHEDABUCTO BAY,0,45.48687,-61.14100000000001,18,2023-10-16T03:20:00.000Z,110,2023-10-16T03:22:42.713Z,45.48695,100,-61.14117,100,12.4,100,14.6,100,12.4,100,0.0,100,3.5,100,,-1,,-1,,-1,,-1,,-1,,-1,,-1,,-1,986.2,100,37.4,100,66,100,45.4,100,5,100,7,1,-5.1,1,986.2,1,986.2,100,986.2,100,37.4,100,36.0,100,66,100,61,100,45.4,100,43.9,100
2023-10-16T03:30:00Z,44489,9302001,WEST CHEDABUCTO BAY,0,45.48687,-61.14100000000001,18,2023-10-16T03:30:00.000Z,110,2023-10-16T03:32:43.646Z,45.48693,100,-61.14118000000001,100,12.3,100,14.6,100,12.4,100,0.0,100,3.5,100,,-1,,-1,,-1,,-1,,-1,,-1,,-1,,-1,986.0,100,37.8,100,62,100,45.7,100,5,100,8,1,-5.0,1,986.0,1,986.0,100,985.9,100,37.8,100,36.4,100,62,100,57,100,45.7,100,43.9,100
2023-10-16T03:40:00Z,44489,9302001,WEST CHEDABUCTO BAY,0,45.48687,-61.14100000000001,18,2023-10-16T03:40:00.000Z,110,2023-10-16T03:42:52.267Z,45.48693,100,-61.14117,100,12.4,100,14.6,100,12.4,100,0.0,100,3.5,100,,-1,,-1,,-1,,-1,,-1,,-1,,-1,,-1,985.6,100,42.5,100,61,100,51.5,100,5,100,8,1,-5.1,1,985.6,1,985.6,100,985.6,100,42.5,100,41.0,100,61,100,56,100,51.5,100,48.2,100
2023-10-16T03:50:00Z,44489,9302001,WEST CHEDABUCTO BAY,0,45.48687,-61.14100000000001,18,2023-10-16T03:50:00.000Z,110,2023-10-16T03:53:49.130Z,45.48693,100,-61.1412,100,12.3,100,14.6,100,12.4,100,0.0,100,3.5,100,,-1,,-1,,-1,,-1,,-1,,-1,,-1,,-1,985.4,100,43.9,100,64,100,52.2,100,5,100,8,1,-5.0,1,985.4,1,985.4,100,985.3,100,43.9,100,42.1,100,64,100,59,100,52.2,100,52.9,100
2023-10-16T04:00:00Z,44489,9302001,WEST CHEDABUCTO BAY,0,45.48687,-61.14100000000001,18,2023-10-16T04:00:00.000Z,108,2023-10-16T04:02:57.504Z,45.48693,100,-61.14118000000001,100,12.3,100,14.6,100,12.4,100,0.0,100,3.5,100,0.5,100,1.3,100,3.9,100,0.7,100,0.9,100,4.1,100,3.3,100,5.0,100,985.3,100,39.2,100,57,100,49.7,100,5,100,6,1,-4.8,1,985.3,1,985.3,100,985.2,100,39.2,100,37.4,100,57,100,52,100,49.7,100,47.2,100
2023-10-16T04:10:00Z,44489,9302001,WEST CHEDABUCTO BAY,0,45.48687,-61.14100000000001,18,2023-10-16T04:10:00.000Z,110,2023-10-16T04:16:08.141Z,45.48692,100,-61.14122,100,12.4,100,14.6,100,12.4,100,0.0,100,3.5,100,,-1,,-1,,-1,,-1,,-1,,-1,,-1,,-1,985.1,100,42.8,100,60,100,56.2,100,5,100,6,1,-4.9,1,985.1,1,985.1,100,985.0,100,42.8,100,41.4,100,60,100,55,100,56.2,100,54.4,100
2023-10-16T04:20:00Z,44489,9302001,WEST CHEDABUCTO BAY,0,45.48687,-61.14100000000001,18,2023-10-16T04:20:00.000Z,110,2023-10-16T04:22:59.192Z,45.48693,100,-61.14118000000001,100,12.4,100,14.6,100,12.4,100,0.0,100,3.5,100,,-1,,-1,,-1,,-1,,-1,,-1,,-1,,-1,985.0,100,39.2,100,55,100,51.1,100,5,100,6,1,-4.6,1,985.0,1,985.0,100,985.0,100,39.2,100,37.8,100,55,100,50,100,51.1,100,49.0,100
2023-10-16T04:30:00Z,44489,9302001,WEST CHEDABUCTO BAY,0,45.48687,-61.14100000000001,18,2023-10-16T04:30:00.000Z,110,2023-10-16T04:33:06.674Z,45.48693,100,-61.1412,100,12.4,100,14.6,100,12.4,100,0.0,100,3.5,100,,-1,,-1,,-1,,-1,,-1,,-1,,-1,,-1,984.8,100,40.7,100,54,100,50.8,100,5,100,6,1,-4.5,1,984.8,1,984.8,100,984.8,100,40.7,100,38.9,100,54,100,49,100,50.8,100,50.0,100
2023-10-16T04:40:00Z,44489,9302001,WEST CHEDABUCTO BAY,0,45.48687,-61.14100000000001,18,2023-10-16T04:40:00.000Z,110,2023-10-16T04:43:00.620Z,45.48692,100,-61.1412,100,12.4,100,14.5,100,12.3,100,0.0,100,3.5,100,,-1,,-1,,-1,,-1,,-1,,-1,,-1,,-1,984.7,100,41.4,100,51,100,52.2,100,5,100,6,1,-4.3,1,984.7,1,984.7,100,984.6,100,41.4,100,40.0,100,51,100,46,100,52.2,100,50.8,100
2023-10-16T04:50:00Z,44489,9302001,WEST CHEDABUCTO BAY,0,45.48687,-61.14100000000001,18,2023-10-16T04:50:00.000Z,110,2023-10-16T04:53:05.068Z,45.48693,100,-61.14122,100,12.4,100,14.5,100,12.3,100,0.0,100,3.5,100,,-1,,-1,,-1,,-1,,-1,,-1,,-1,,-1,984.6,100,41.4,100,53,100,55.1,100,5,100,6,1,-4.2,1,984.6,1,984.6,100,984.5,100,41.4,100,39.6,100,53,100,48,100,55.1,100,50.8,100
2023-10-16T05:00:00Z,44489,9302001,WEST CHEDABUCTO BAY,0,45.48687,-61.14100000000001,18,2023-10-16T05:00:00.000Z,108,2023-10-16T05:03:20.457Z,45.48692,100,-61.14122,100,12.4,100,14.5,100,12.4,100,0.0,100,3.5,100,0.5,100,1.4,100,4.3,100,0.8,100,1.0,100,4.5,100,3.4,100,5.4,100,984.5,100,41.0,100,50,100,52.9,100,5,100,6,1,-3.9,1,984.5,1,984.5,100,984.4,100,41.0,100,39.2,100,50,100,45,100,52.9,100,50.8,100
2023-10-16T05:10:00Z,44489,9302001,WEST CHEDABUCTO BAY,0,45.48687,-61.14100000000001,18,2023-10-16T05:10:00.000Z,110,2023-10-16T05:16:06.090Z,45.48688,100,-61.1412,100,12.3,100,14.5,100,12.4,100,0.0,100,3.5,100,,-1,,-1,,-1,,-1,,-1,,-1,,-1,,-1,984.4,100,40.0,100,48,100,50.8,100,5,100,6,1,-3.7,1,984.4,1,984.4,100,984.4,100,40.0,100,38.2,100,48,100,43,100,50.8,100,48.6,100
2023-10-16T05:20:00Z,44489,9302001,WEST CHEDABUCTO BAY,0,45.48687,-61.14100000000001,18,2023-10-16T05:20:00.000Z,110,2023-10-16T05:23:16.388Z,45.4869,100,-61.14122,100,12.3,100,14.5,100,12.4,100,0.0,100,3.5,100,,-1,,-1,,-1,,-1,,-1,,-1,,-1,,-1,984.4,100,41.4,100,47,100,50.4,100,5,100,6,1,-3.5,1,984.4,1,984.4,100,984.4,100,41.4,100,39.6,100,47,100,42,100,50.4,100,49.7,100
2023-10-16T05:30:00Z,44489,9302001,WEST CHEDABUCTO BAY,0,45.48687,-61.14100000000001,18,2023-10-16T05:30:00.000Z,110,2023-10-16T05:33:16.689Z,45.4869,100,-61.14122,100,12.3,100,14.5,100,12.4,100,0.0,100,3.5,100,,-1,,-1,,-1,,-1,,-1,,-1,,-1,,-1,984.3,100,43.9,100,47,100,59.0,100,5,100,6,1,-3.4,1,984.3,1,984.3,100,984.3,100,43.9,100,42.1,100,47,100,42,100,59.0,100,56.5,100
2023-10-16T05:40:00Z,44489,9302001,WEST CHEDABUCTO BAY,0,45.48687,-61.14100000000001,18,2023-10-16T05:40:00.000Z,110,2023-10-16T05:43:16.932Z,45.4869,100,-61.14122,100,12.3,100,14.5,100,12.3,100,0.0,100,3.5,100,,-1,,-1,,-1,,-1,,-1,,-1,,-1,,-1,984.2,100,41.0,100,45,100,53.6,100,5,100,6,1,-3.2,1,984.2,1,984.2,100,984.2,100,41.0,100,39.2,100,45,100,40,100,53.6,100,51.1,100
2023-10-16T05:50:00Z,44489,9302001,WEST CHEDABUCTO BAY,0,45.48687,-61.14100000000001,18,2023-10-16T05:50:00.000Z,110,2023-10-16T05:53:17.789Z,45.4869,100,-61.1412,100,12.2,100,14.5,100,12.3,100,0.0,100,3.5,100,,-1,,-1,,-1,,-1,,-1,,-1,,-1,,-1,984.0,100,42.8,100,42,100,54.0,100,5,100,6,1,-3.1,1,984.0,1,984.0,100,984.0,100,42.8,100,41.0,100,42,100,37,100,54.0,100,51.8,100
2023-10-16T06:00:00Z,44489,9302001,WEST CHEDABUCTO BAY,0,45.48687,-61.14100000000001,18,2023-10-16T06:00:00.000Z,108,2023-10-16T06:03:29.128Z,45.48688,100,-61.1412,100,12.3,100,14.5,100,12.4,100,0.0,100,3.5,100,0.6,100,1.5,100,4.9,100,0.9,100,1.2,100,5.4,100,3.7,100,6.3,100,983.9,100,40.7,100,42,100,51.1,100,5,100,6,1,-2.9,1,983.9,1,983.9,100,983.9,100,40.7,100,39.2,100,42,100,37,100,51.1,100,49.3,100
2023-10-16T06:10:00Z,44489,9302001,WEST CHEDABUCTO BAY,0,45.48687,-61.14100000000001,18,2023-10-16T06:10:00.000Z,110,2023-10-16T06:16:26.679Z,45.48688,100,-61.14118000000001,100,12.3,100,14.5,100,12.4,100,0.0,100,3.5,100,,-1,,-1,,-1,,-1,,-1,,-1,,-1,,-1,983.8,100,39.6,100,36,100,51.1,100,5,100,6,1,-2.7,1,983.8,1,983.8,100,983.7,100,39.6,100,37.8,100,36,100,31,100,51.1,100,50.0,100
2023-10-16T06:20:00Z,44489,9302001,WEST CHEDABUCTO BAY,0,45.48687,-61.14100000000001,18,2023-10-16T06:20:00.000Z,110,2023-10-16T06:23:22.579Z,45.4869,100,-61.14118000000001,100,12.3,100,14.5,100,12.4,100,0.0,100,3.5,100,,-1,,-1,,-1,,-1,,-1,,-1,,-1,,-1,983.6,100,43.9,100,35,100,55.4,100,5,100,6,1,-2.6,1,983.6,1,983.6,100,983.6,100,43.9,100,42.5,100,35,100,30,100,55.4,100,54.0,100
2023-10-16T06:30:00Z,44489,9302001,WEST CHEDABUCTO BAY,0,45.48687,-61.14100000000001,18,2023-10-16T06:30:00.000Z,110,2023-10-16T06:33:34.863Z,45.48688,100,-61.14118000000001,100,12.4,100,14.4,100,12.4,100,0.0,100,3.5,100,,-1,,-1,,-1,,-1,,-1,,-1,,-1,,-1,983.7,100,43.2,100,35,100,55.8,100,5,100,6,1,-2.3,1,983.7,1,983.7,100,983.6,100,43.2,100,41.8,100,35,100,30,100,55.8,100,53.6,100
2023-10-16T06:40:00Z,44489,9302001,WEST CHEDABUCTO BAY,0,45.48687,-61.14100000000001,18,2023-10-16T06:40:00.000Z,110,2023-10-16T06:42:33.858Z,45.4869,100,-61.1412,100,12.5,100,14.4,100,12.3,100,0.0,100,3.5,100,,-1,,-1,,-1,,-1,,-1,,-1,,-1,,-1,983.7,100,42.5,100,36,100,52.6,100,5,100,6,1,-1.9,1,983.7,1,983.7,100,983.6,100,42.5,100,40.7,100,36,100,31,100,52.6,100,50.0,100
2023-10-16T06:50:00Z,44489,9302001,WEST CHEDABUCTO BAY,0,45.48687,-61.14100000000001,18,2023-10-16T06:50:00.000Z,110,2023-10-16T06:53:34.922Z,45.4869,100,-61.1412,100,12.4,100,14.4,100,12.3,100,0.0,100,3.5,100,,-1,,-1,,-1,,-1,,-1,,-1,,-1,,-1,983.7,100,43.9,100,36,100,56.9,100,5,100,6,1,-1.7,1,983.7,1,983.7,100,983.7,100,43.9,100,42.5,100,36,100,32,100,56.9,100,55.1,100
2023-10-16T07:00:00Z,44489,9302001,WEST CHEDABUCTO BAY,0,45.48687,-61.14100000000001,18,2023-10-16T07:00:00.000Z,108,2023-10-16T07:02:45.524Z,45.4869,100,-61.14118000000001,100,12.3,100,14.4,100,12.4,100,0.0,100,3.5,100,0.6,100,1.6,100,5.2,100,0.9,100,1.2,100,5.8,100,3.9,100,6.9,100,983.7,100,45.7,100,39,100,60.8,100,5,100,6,1,-1.6,1,983.7,1,983.7,100,983.7,100,45.7,100,43.9,100,39,100,34,100,60.8,100,58.0,100
2023-10-16T07:10:00Z,44489,9302001,WEST CHEDABUCTO BAY,0,45.48687,-61.14100000000001,18,2023-10-16T07:10:00.000Z,110,2023-10-16T07:15:45.073Z,45.48687,100,-61.1412,100,12.2,100,14.4,100,12.4,100,0.0,100,3.5,100,,-1,,-1,,-1,,-1,,-1,,-1,,-1,,-1,983.7,100,46.4,100,36,100,68.0,100,5,100,6,1,-1.3,1,983.7,1,983.7,100,983.7,100,46.4,100,44.3,100,36,100,31,100,68.0,100,64.4,100
2023-10-16T07:20:00Z,44489,9302001,WEST CHEDABUCTO BAY,0,45.48687,-61.14100000000001,18,2023-10-16T07:20:00.000Z,110,2023-10-16T07:22:38.867Z,45.48688,100,-61.1412,100,12.1,100,14.4,100,12.4,100,0.0,100,3.5,100,,-1,,-1,,-1,,-1,,-1,,-1,,-1,,-1,983.7,100,49.7,100,35,100,69.8,100,5,100,6,1,-1.3,1,983.7,1,983.7,100,983.6,100,49.7,100,47.5,100,35,100,30,100,69.8,100,65.5,100
2023-10-16T07:30:00Z,44489,9302001,WEST CHEDABUCTO BAY,0,45.48687,-61.14100000000001,18,2023-10-16T07:30:00.000Z,110,2023-10-16T07:32:51.295Z,45.4869,100,-61.1412,100,11.9,100,14.4,100,12.4,100,0.0,100,3.5,100,,-1,,-1,,-1,,-1,,-1,,-1,,-1,,-1,983.8,100,48.2,100,31,100,62.3,100,5,100,5,1,-1.1,1,983.8,1,983.8,100,983.7,100,48.2,100,46.4,100,31,100,26,100,62.3,100,60.1,100
2023-10-16T07:40:00Z,44489,9302001,WEST CHEDABUCTO BAY,0,45.48687,-61.14100000000001,18,2023-10-16T07:40:00.000Z,110,2023-10-16T07:44:53.781Z,45.4869,100,-61.14118000000001,100,12.0,100,14.4,100,12.3,100,0.0,100,3.5,100,,-1,,-1,,-1,,-1,,-1,,-1,,-1,,-1,984.0,100,41.4,100,26,100,53.6,100,5,100,5,1,-0.7,1,984.0,1,984.0,100,984.0,100,41.4,100,39.6,100,26,100,21,100,53.6,100,50.4,100
2023-10-16T07:50:00Z,44489,9302001,WEST CHEDABUCTO BAY,0,45.48687,-61.14100000000001,18,2023-10-16T07:50:00.000Z,110,2023-10-16T07:52:59.133Z,45.48693,100,-61.141169999999995,100,11.9,100,14.4,100,12.3,100,0.0,100,3.5,100,,-1,,-1,,-1,,-1,,-1,,-1,,-1,,-1,984.1,100,42.1,100,26,100,54.4,100,5,100,5,1,-0.6,1,984.1,1,984.1,100,984.0,100,42.1,100,40.3,100,26,100,21,100,54.4,100,51.8,100
2023-10-16T08:00:00Z,44489,9302001,WEST CHEDABUCTO BAY,0,45.48687,-61.14100000000001,18,2023-10-16T08:00:00.000Z,108,2023-10-16T08:03:04.912Z,45.48693,100,-61.14117,100,11.9,100,14.4,100,12.4,100,0.0,100,3.5,100,0.6,100,1.3,100,5.4,100,0.9,100,1.1,100,6.0,100,3.9,100,7.7,100,984.2,100,40.0,100,20,100,48.6,100,5,100,5,1,-0.3,1,984.2,1,984.2,100,984.2,100,40.0,100,38.5,100,20,100,15,100,48.6,100,47.9,100
2023-10-16T08:10:00Z,44489,9302001,WEST CHEDABUCTO BAY,0,45.48687,-61.14100000000001,18,2023-10-16T08:10:00.000Z,110,2023-10-16T08:15:55.230Z,45.48692,100,-61.14115,100,11.9,100,14.4,100,12.4,100,0.0,100,3.5,100,,-1,,-1,,-1,,-1,,-1,,-1,,-1,,-1,984.3,100,37.4,100,16,100,48.2,100,5,100,5,1,-0.1,1,984.3,1,984.3,100,984.3,100,37.4,100,36.0,100,16,100,11,100,48.2,100,46.4,100
2023-10-16T08:20:00Z,44489,9302001,WEST CHEDABUCTO BAY,0,45.48687,-61.14100000000001,18,2023-10-16T08:20:00.000Z,110,2023-10-16T08:22:55.534Z,45.48692,100,-61.14115,100,11.8,100,14.4,100,12.4,100,0.0,100,3.5,100,,-1,,-1,,-1,,-1,,-1,,-1,,-1,,-1,984.4,100,39.6,100,12,100,49.3,100,5,100,5,1,-0.1,1,984.4,1,984.4,100,984.3,100,39.6,100,38.2,100,12,100,7,100,49.3,100,49.7,100
2023-10-16T08:30:00Z,44489,9302001,WEST CHEDABUCTO BAY,0,45.48687,-61.14100000000001,18,2023-10-16T08:30:00.000Z,110,2023-10-16T08:33:00.228Z,45.48692,100,-61.141130000000004,100,11.8,100,14.4,100,12.4,100,0.0,100,3.5,100,,-1,,-1,,-1,,-1,,-1,,-1,,-1,,-1,984.4,100,39.2,100,7,100,46.1,100,5,100,5,1,0.0,1,984.4,1,984.4,100,984.3,100,39.2,100,38.2,100,7,100,2,100,46.1,100,45.7,100
2023-10-16T08:40:00Z,44489,9302001,WEST CHEDABUCTO BAY,0,45.48687,-61.14100000000001,18,2023-10-16T08:40:00.000Z,110,2023-10-16T08:43:05.760Z,45.4869,100,-61.14112,100,11.9,100,14.3,100,12.3,100,0.0,100,3.5,100,,-1,,-1,,-1,,-1,,-1,,-1,,-1,,-1,984.4,100,41.8,100,7,100,54.0,100,5,100,3,1,0.1,1,984.4,1,984.4,100,984.3,100,41.8,100,40.3,100,7,100,2,100,54.0,100,52.6,100
2023-10-16T08:50:00Z,44489,9302001,WEST CHEDABUCTO BAY,0,45.48687,-61.14100000000001,18,2023-10-16T08:50:00.000Z,110,2023-10-16T08:53:08.931Z,45.48692,100,-61.14108,100,11.8,100,14.3,100,12.3,100,0.0,100,3.5,100,,-1,,-1,,-1,,-1,,-1,,-1,,-1,,-1,984.5,100,42.8,100,3,100,52.2,100,5,100,3,1,0.4,1,984.5,1,984.5,100,984.4,100,42.8,100,41.4,100,3,100,358,100,52.2,100,50.8,100
2023-10-16T09:00:00Z,44489,9302001,WEST CHEDABUCTO BAY,0,45.48687,-61.14100000000001,18,2023-10-16T09:00:00.000Z,108,2023-10-16T09:03:21.306Z,45.48692,100,-61.14108,100,11.9,100,14.3,100,12.3,100,0.0,100,3.5,100,0.6,100,2.4,100,5.9,100,1.0,100,1.2,100,6.8,100,4.2,100,8.3,100,984.7,100,41.4,100,4,100,53.6,100,5,100,3,1,0.7,1,984.7,1,984.7,100,984.6,100,41.4,100,40.0,100,4,100,0,100,53.6,100,51.5,100
2023-10-16T09:10:00Z,44489,9302001,WEST CHEDABUCTO BAY,0,45.48687,-61.14100000000001,18,2023-10-16T09:10:00.000Z,110,2023-10-16T09:16:17.002Z,45.4869,100,-61.141119999999994,100,11.8,100,14.3,100,12.3,100,0.0,100,3.5,100,,-1,,-1,,-1,,-1,,-1,,-1,,-1,,-1,984.9,100,42.1,100,10,100,52.6,100,5,100,3,1,1.1,1,984.9,1,984.9,100,984.8,100,42.1,100,41.0,100,10,100,5,100,52.6,100,50.8,100
2023-10-16T09:20:00Z,44489,9302001,WEST CHEDABUCTO BAY,0,45.48687,-61.14100000000001,18,2023-10-16T09:20:00.000Z,110,2023-10-16T09:23:14.247Z,45.4869,100,-61.14108,100,11.8,100,14.3,100,12.3,100,0.0,100,3.5,100,,-1,,-1,,-1,,-1,,-1,,-1,,-1,,-1,985.1,100,41.4,100,8,100,55.1,100,5,100,3,1,1.5,1,985.1,1,985.1,100,985.0,100,41.4,100,40.0,100,8,100,3,100,55.1,100,53.6,100